Terminal Aerodrome Forecast
Issued by NWS Charleston, SC

Home | Current Version | Previous Version | Text Only | Print | Product List | Glossary On
Versions: 1 2 3 4 5 6 7 8 9 10 11 12 13 14 15 16 17 18 19 20 21 22 23 24 25 26 27 28
000
FTUS42 KCHS 261804 AAA
TAFCHS
TAF AMD
KCHS 261804Z 2618/2718 09009KT P6SM VCSH SCT040 BKN150
      TEMPO 2618/2620 10012KT 2SM TSRA BR BKN020CB
     FM262100 10010KT P6SM SCT040 BKN200
     FM270000 07005KT P6SM FEW020 BKN150
     FM270900 02003KT 5SM BR VCSH BKN015
     FM271400 35006KT P6SM SCT020 BKN035=

USA.gov is the U.S. government's official web portal to all federal, state and local government web resources and services.